GW5308 Weather Reports


time (UTC)temp
C
wind
direction
speed
KPH
gust
KPH
rain 1hr
cm
rain 24hr
cm
rain mn
cm
humidity
%
barometer
mb
20260901032018 24 0 0.0 0.0 0.00 0.05 0.05 100 1016.5
20260901031546 24 0 0.0 0.0 0.00 0.05 0.05 100 1016.6
20260901031018 24 0 0.0 0.0 0.00 0.05 0.05 100 1016.6
20260901030521 24 0 0.0 0.0 0.00 0.05 0.05 100 1016.6
20260901030037 24 0 0.0 0.0 0.00 0.05 0.05 100 1016.6
20260901025522 25 0 0.0 0.0 0.00 0.05 0.05 100 1016.6
20260901025022 25 0 0.0 0.0 0.00 0.05 0.05 100 1016.6
20260901024538 25 0 0.0 0.0 0.00 0.05 0.05 100 1016.6
20260901024020 25 0 0.0 0.0 0.00 0.05 0.05 100 1016.6
20260901023520 25 0 0.0 0.0 0.00 0.05 0.05 100 1016.6
20260901023040 25 0 0.0 0.0 0.00 0.05 0.05 100 1016.6
20260901022518 25 0 0.0 0.0 0.00 0.05 0.05 100 1016.5
20260901022021 25 0 0.0 0.0 0.00 0.05 0.05 100 1016.5
20260901021541 25 0 0.0 0.0 0.00 0.05 0.05 100 1016.5
20260901021019 25 0 0.0 0.0 0.00 0.05 0.05 100 1016.5
20260901020522 25 0 0.0 0.0 0.00 0.05 0.05 100 1016.5
20260901020059 25 0 0.0 0.0 0.00 0.05 0.05 100 1016.5
20260901015520 25 0 0.0 0.0 0.00 0.05 0.05 100 1016.4
20260901015020 25 0 0.0 0.0 0.00 0.05 0.05 100 1016.4
20260901014539 25 0 0.0 0.0 0.00 0.05 0.05 100 1016.3
20260901014021 25 0 0.0 0.0 0.00 0.05 0.05 100 1016.3
20260901013520 25 0 0.0 0.0 0.00 0.05 0.05 100 1016.2
20260901013042 25 0 0.0 0.0 0.00 0.05 0.05 100 1016.2
20260901012519 25 0 0.0 0.0 0.00 0.05 0.05 100 1016.2
20260901012020 25 0 0.0 0.0 0.00 0.05 0.05 100 1016.2
20260901011541 25 0 0.0 0.0 0.00 0.05 0.05 100 1016.1
20260901011019 25 0 0.0 0.0 0.00 0.05 0.05 100 1016.0
20260901010522 25 0 0.0 0.0 0.00 0.05 0.05 100 1015.9
20260901010042 25 0 0.0 0.0 0.00 0.05 0.05 100 1015.8
20260901005520 25 0 0.0 0.0 0.00 0.05 0.05 100 1015.8
20260901005022 25 0 0.0 0.0 0.00 0.05 0.05 99 1015.7
20260901004542 26 0 0.0 0.0 0.00 0.05 0.05 99 1015.7
20260901004021 26 0 0.0 0.0 0.00 0.05 0.05 99 1015.7
20260901003519 26 0 0.0 0.0 0.00 0.05 0.05 99 1015.6
20260901003046 26 0 0.0 0.0 0.00 0.05 0.05 98 1015.5
20260901002520 26 0 0.0 0.0 0.00 0.05 0.05 98 1015.4
20260901002020 26 0 0.0 0.0 0.00 0.05 0.05 98 1015.5
20260901001550 26 0 0.0 0.0 0.00 0.05 0.05 98 1015.5
20260901001019 26 0 0.0 0.0 0.00 0.05 0.05 98 1015.5
20260901000520 26 0 0.0 0.0 0.00 0.05 0.05 98 1015.5
20260901000045 26 0 0.0 0.0 0.00 0.05 0.05 97 1015.4
20260831235519 26 0 0.0 0.0 0.00 0.05 0.05 97 1015.4
20260831235016 27 0 0.0 0.0 0.00 0.05 0.05 97 1015.4
20260831234555 27 0 0.0 0.0 0.00 0.05 0.05 97 1015.4
20260831234020 27 0 0.0 0.0 0.00 0.05 0.05 96 1015.4
20260831233523 27 0 0.0 0.0 0.00 0.05 0.05 96 1015.4
20260831233046 27 0 0.0 0.0 0.00 0.05 0.05 96 1015.4
20260831232519 27 0 0.0 1.6 0.00 0.05 0.05 96 1015.3
20260831232019 27 0 0.0 1.6 0.00 0.05 0.05 96 1015.3
20260831231538 27 0 0.0 1.6 0.00 0.05 0.05 96 1015.5
20260831231019 27 289 0.0 1.6 0.00 0.05 0.05 96 1015.4
20260831230518 27 0 0.0 3.2 0.00 0.05 0.05 97 1015.4
20260831230041 26 18 0.0 3.2 0.00 0.05 0.05 97 1015.5
20260831225518 26 0 0.0 0.0 0.00 0.05 0.05 97 1015.5
20260831225020 26 0 0.0 0.0 0.00 0.05 0.05 96 1015.5
20260831224539 26 0 0.0 0.0 0.00 0.05 0.05 96 1015.6
20260831224021 26 0 0.0 0.0 0.00 0.05 0.05 95 1015.6
20260831223520 27 0 0.0 0.0 0.00 0.05 0.05 95 1015.7
20260831223037 27 0 0.0 0.0 0.00 0.05 0.05 95 1015.7
20260831222520 27 0 0.0 0.0 0.00 0.05 0.05 94 1015.7
20260831222019 27 0 0.0 1.6 0.00 0.05 0.05 93 1015.7
20260831221540 27 0 0.0 1.6 0.00 0.05 0.05 92 1015.7
20260831221019 27 212 0.0 1.6 0.00 0.05 0.05 91 1015.7
20260831220519 28 0 0.0 1.6 0.00 0.05 0.05 93 1015.7
20260831220045 28 0 0.0 1.6 0.00 0.05 0.05 92 1015.8
20260831215519 28 0 0.0 0.0 0.00 0.05 0.05 92 1015.9
20260831215021 28 0 0.0 1.6 0.00 0.05 0.05 92 1016.0
20260831214540 28 0 0.0 3.2 0.00 0.05 0.05 92 1015.9
20260831214019 28 302 0.0 3.2 0.00 0.05 0.05 91 1016.0
20260831213520 28 0 0.0 3.2 0.00 0.05 0.05 91 1015.8
20260831213039 28 0 0.0 1.6 0.00 0.05 0.05 91 1015.9
20260831212526 28 0 0.0 1.6 0.00 0.05 0.05 91 1016.0
20260831212020 28 0 0.0 0.0 0.00 0.05 0.05 90 1015.9
20260831211543 28 0 0.0 0.0 0.00 0.05 0.05 90 1015.8
20260831211018 28 0 0.0 0.0 0.00 0.05 0.05 90 1015.8
20260831210520 28 0 0.0 1.6 0.00 0.05 0.05 89 1015.8
20260831210047 28 0 0.0 1.6 0.00 0.05 0.05 89 1015.8
20260831205521 28 0 0.0 0.0 0.00 0.05 0.05 88 1015.6
20260831205023 28 0 0.0 1.6 0.00 0.05 0.05 89 1015.7
20260831204535 28 0 0.0 1.6 0.00 0.05 0.05 88 1015.7
20260831204024 28 8 0.0 4.8 0.00 0.05 0.05 88 1015.7
20260831203521 28 0 0.0 4.8 0.00 0.05 0.05 88 1015.7
20260831203038 28 0 0.0 0.0 0.00 0.05 0.05 89 1015.8
20260831202520 28 0 0.0 0.0 0.00 0.05 0.05 88 1015.7
20260831202018 28 0 0.0 1.6 0.00 0.05 0.05 85 1015.5
20260831201546 29 0 0.0 4.8 0.00 0.05 0.05 84 1015.6
20260831201034 29 0 0.0 4.8 0.00 0.05 0.05 84 1015.8
20260831200523 29 0 1.6 6.4 0.00 0.05 0.05 83 1015.6
20260831200042 30 0 0.0 6.4 0.00 0.05 0.05 83 1015.7
20260831195524 30 4 0.0 6.4 0.00 0.05 0.05 83 1015.7
20260831195023 30 351 1.6 8.0 0.00 0.05 0.05 82 1015.7
20260831194613 30 334 3.2 8.0 0.00 0.05 0.05 81 1015.6
20260831194021 30 11 1.6 6.4 0.00 0.05 0.05 82 1015.6
20260831193522 30 0 0.0 8.0 0.00 0.05 0.05 82 1015.6
20260831193043 30 302 1.6 8.0 0.00 0.05 0.05 82 1015.5
20260831192523 31 325 1.6 8.0 0.00 0.05 0.05 78 1015.3
20260831192019 31 359 1.6 8.0 0.00 0.05 0.05 79 1015.4
20260831191539 32 13 0.0 4.8 0.00 0.05 0.05 78 1015.4
20260831191021 32 137 1.6 8.0 0.00 0.05 0.05 77 1015.4
20260831190519 32 0 1.6 8.0 0.00 0.05 0.05 77 1015.4
20260831190043 32 11 1.6 8.0 0.00 0.05 0.05 80 1015.4
20260831185521 32 297 3.2 9.7 0.00 0.05 0.05 78 1015.4
20260831185022 32 356 3.2 9.7 0.00 0.05 0.05 81 1015.4
20260831184605 31 80 1.6 4.8 0.00 0.05 0.05 83 1015.7
20260831184019 31 340 0.0 6.4 0.00 0.05 0.05 82 1015.6
20260831183520 31 344 1.6 8.0 0.00 0.05 0.05 82 1015.7
20260831183044 31 304 1.6 8.0 0.00 0.05 0.05 82 1015.8
20260831182521 31 18 3.2 8.0 0.00 0.05 0.05 82 1015.9
20260831182020 31 314 1.6 4.8 0.00 0.05 0.05 82 1015.9
20260831181540 31 0 0.0 6.4 0.00 0.05 0.05 84 1015.9
20260831181021 30 0 1.6 6.4 0.00 0.05 0.05 87 1016.0
20260831180526 30 328 0.0 4.8 0.00 0.05 0.05 86 1016.1
20260831180044 30 30 0.0 4.8 0.00 0.05 0.05 87 1016.2
20260831175519 30 0 0.0 6.4 0.00 0.18 0.05 87 1016.2
20260831175019 30 0 1.6 6.4 0.00 0.18 0.05 87 1016.4
20260831174536 30 0 0.0 1.6 0.03 0.18 0.05 92 1016.4
20260831174021 29 283 0.0 1.6 0.05 0.18 0.05 92 1016.5
20260831173524 29 0 0.0 3.2 0.05 0.18 0.05 94 1016.5
20260831173051 28 0 0.0 3.2 0.05 0.18 0.05 94 1016.6
20260831172519 28 0 0.0 3.2 0.05 0.18 0.05 93 1016.7
20260831172021 28 11 0.0 3.2 0.05 0.18 0.05 95 1016.8
20260831171538 28 0 0.0 3.2 0.05 0.18 0.05 95 1016.9
20260831171019 28 0 0.0 3.2 0.05 0.18 0.05 96 1017.0
20260831170520 28 0 0.0 3.2 0.05 0.18 0.05 96 1017.1
20260831170037 28 0 0.0 3.2 0.05 0.18 0.05 97 1017.2
20260831165522 28 0 0.0 4.8 0.05 0.18 0.05 97 1017.3
20260831165020 28 34 0.0 8.0 0.05 0.18 0.05 94 1017.4
20260831164538 28 1 0.0 8.0 0.03 0.15 0.03 93 1017.5
20260831164021 29 7 1.6 8.0 0.00 0.13 0.00 89 1017.2
20260831163523 30 0 0.0 3.2 0.00 0.13 0.00 85 1017.2
20260831163039 30 0 0.0 3.2 0.00 0.13 0.00 82 1017.2
20260831162521 32 0 0.0 3.2 0.00 0.13 0.00 78 1017.3
20260831162020 33 0 0.0 0.0 0.00 0.13 0.00 73 1017.3
20260831161542 33 0 0.0 1.6 0.00 0.13 0.00 74 1017.2
20260831161021 32 0 0.0 1.6 0.00 0.13 0.00 77 1017.3
20260831160521 32 0 0.0 1.6 0.00 0.13 0.00 74 1017.3
20260831160042 32 0 0.0 1.6 0.00 0.13 0.00 75 1017.5
20260831155521 32 0 0.0 1.6 0.00 0.13 0.00 75 1017.5
20260831155021 32 0 0.0 1.6 0.00 0.13 0.00 76 1017.6
20260831154603 32 0 0.0 0.0 0.00 0.13 0.00 77 1017.7
20260831154023 31 0 0.0 0.0 0.00 0.13 0.00 80 1017.7
20260831153526 32 0 0.0 0.0 0.00 0.13 0.00 80 1017.7
20260831153043 31 0 0.0 0.0 0.00 0.13 0.00 81 1017.6
20260831152519 31 0 0.0 0.0 0.00 0.13 0.00 80 1017.6
20260831152021 31 0 0.0 0.0 0.00 0.13 0.00 83 1017.6
20260831151537 31 0 0.0 0.0 0.00 0.13 0.00 84 1017.6
20260831151022 31 0 0.0 0.0 0.00 0.13 0.00 83 1017.5
20260831150520 31 0 0.0 0.0 0.00 0.13 0.00 84 1017.5
20260831150042 30 0 0.0 0.0 0.00 0.13 0.00 84 1017.4
20260831145517 30 0 0.0 0.0 0.00 0.13 0.00 86 1017.5
20260831145019 30 0 0.0 0.0 0.00 0.13 0.00 84 1017.5
20260831144550 30 0 0.0 0.0 0.00 0.13 0.00 86 1017.5
20260831144019 30 0 0.0 0.0 0.00 0.13 0.00 85 1017.5
20260831143519 31 0 0.0 0.0 0.00 0.13 0.00 84 1017.3
20260831143045 30 0 0.0 0.0 0.00 0.13 0.00 85 1017.2
20260831142520 30 0 0.0 0.0 0.00 0.13 0.00 86 1017.2
20260831142022 30 0 0.0 0.0 0.00 0.13 0.00 86 1017.1
20260831141537 30 0 0.0 0.0 0.00 0.13 0.00 88 1017.1
20260831141019 30 0 0.0 0.0 0.00 0.13 0.00 89 1017.1
20260831140519 29 0 0.0 0.0 0.00 0.13 0.00 92 1017.2
20260831140040 29 0 0.0 0.0 0.00 0.13 0.00 91 1017.2
20260831135521 29 0 0.0 0.0 0.00 0.13 0.00 91 1017.1
20260831135025 28 0 0.0 0.0 0.00 0.13 0.00 94 1017.2
20260831134540 28 0 0.0 0.0 0.00 0.13 0.00 95 1017.0
20260831134024 27 0 0.0 0.0 0.00 0.13 0.00 96 1017.1
20260831133521 27 0 0.0 0.0 0.00 0.13 0.00 98 1017.1
20260831133040 27 0 0.0 0.0 0.00 0.13 0.00 99 1017.1
20260831132521 27 0 0.0 0.0 0.00 0.13 0.00 100 1016.9
20260831132020 26 0 0.0 0.0 0.00 0.13 0.00 100 1016.9
20260831131542 26 0 0.0 0.0 0.00 0.13 0.00 100 1016.9
20260831131020 25 0 0.0 0.0 0.00 0.13 0.00 100 1016.9
20260831130520 25 0 0.0 0.0 0.00 0.13 0.00 100 1017.0
20260831130045 25 0 0.0 1.6 0.00 0.13 0.00 100 1016.8
20260831125521 25 0 0.0 1.6 0.00 0.13 0.00 100 1016.8
20260831125021 25 0 0.0 1.6 0.00 0.13 0.00 100 1016.7
20260831124535 24 0 0.0 0.0 0.00 0.13 0.00 100 1016.8
20260831124019 23 0 0.0 0.0 0.00 0.13 0.00 100 1016.7
20260831123520 23 0 0.0 0.0 0.00 0.13 0.00 100 1016.7
20260831123038 23 0 0.0 0.0 0.00 0.13 0.00 100 1016.6
20260831122524 23 0 0.0 0.0 0.00 0.13 0.00 100 1016.5
20260831122019 23 0 0.0 0.0 0.00 0.13 0.00 100 1016.5
20260831121537 23 0 0.0 0.0 0.00 0.13 0.00 100 1016.6
20260831121018 23 0 0.0 0.0 0.00 0.13 0.00 100 1016.5
20260831120521 22 0 0.0 0.0 0.00 0.13 0.00 100 1016.5
20260831120040 22 0 0.0 0.0 0.00 0.13 0.00 100 1016.5
20260831115525 22 0 0.0 0.0 0.00 0.13 0.00 100 1016.4
20260831115021 22 0 0.0 0.0 0.00 0.13 0.00 100 1016.3
20260831114541 22 0 0.0 0.0 0.00 0.13 0.00 100 1016.2
20260831114021 22 0 0.0 0.0 0.00 0.13 0.00 100 1016.2
20260831113521 22 0 0.0 0.0 0.00 0.13 0.00 100 1016.1
20260831113037 22 0 0.0 0.0 0.00 0.13 0.00 100 1016.1
20260831112520 22 0 0.0 0.0 0.00 0.13 0.00 100 1015.9
20260831112020 22 0 0.0 0.0 0.00 0.13 0.00 100 1015.9
20260831111559 22 0 0.0 0.0 0.00 0.13 0.00 100 1015.8
20260831111017 22 0 0.0 0.0 0.00 0.13 0.00 100 1015.9
20260831110519 22 0 0.0 0.0 0.00 0.13 0.00 100 1015.9
20260831110146 22 0 0.0 0.0 0.00 0.13 0.00 100 1015.8
20260831105519 22 0 0.0 0.0 0.00 0.13 0.00 100 1015.8
20260831105021 22 0 0.0 0.0 0.00 0.13 0.00 100 1015.8
20260831104535 22 0 0.0 0.0 0.00 0.13 0.00 100 1015.7
20260831104019 22 0 0.0 0.0 0.00 0.13 0.00 100 1015.5
20260831103519 22 0 0.0 0.0 0.00 0.13 0.00 100 1015.4
20260831103043 22 0 0.0 0.0 0.00 0.13 0.00 100 1015.3
20260831102517 22 0 0.0 0.0 0.00 0.13 0.00 100 1015.3
20260831102019 22 0 0.0 0.0 0.00 0.13 0.00 100 1015.2
20260831101541 22 0 0.0 0.0 0.00 0.13 0.00 100 1015.2
20260831101019 22 0 0.0 0.0 0.00 0.13 0.00 100 1015.2
20260831100520 22 0 0.0 0.0 0.00 0.13 0.00 100 1015.2
20260831100039 22 0 0.0 0.0 0.00 0.13 0.00 100 1015.2
20260831095519 22 0 0.0 0.0 0.00 0.13 0.00 100 1015.3
20260831095019 22 0 0.0 0.0 0.00 0.13 0.00 100 1015.2
20260831094540 22 0 0.0 0.0 0.00 0.13 0.00 100 1015.2
20260831094019 22 0 0.0 0.0 0.00 0.13 0.00 100 1015.1
20260831093524 22 0 0.0 0.0 0.00 0.13 0.00 100 1015.2
20260831093041 22 0 0.0 0.0 0.00 0.13 0.00 100 1015.2
20260831092517 22 0 0.0 0.0 0.00 0.13 0.00 100 1015.3
20260831092022 22 0 0.0 0.0 0.00 0.13 0.00 100 1015.2
20260831091538 22 0 0.0 0.0 0.00 0.13 0.00 100 1015.2
20260831091021 22 0 0.0 0.0 0.00 0.13 0.00 100 1015.2
20260831090521 22 0 0.0 0.0 0.00 0.13 0.00 100 1015.1
20260831090038 22 0 0.0 0.0 0.00 0.13 0.00 100 1015.1
20260831085521 22 0 0.0 0.0 0.00 0.13 0.00 100 1015.1
20260831085024 22 0 0.0 0.0 0.00 0.13 0.00 100 1015.0
20260831084542 22 0 0.0 0.0 0.00 0.13 0.00 100 1015.2
20260831084020 22 0 0.0 0.0 0.00 0.13 0.00 100 1015.2
20260831083520 22 0 0.0 0.0 0.00 0.13 0.00 100 1015.2
20260831083045 22 0 0.0 0.0 0.00 0.13 0.00 100 1015.2
20260831082518 22 0 0.0 0.0 0.00 0.13 0.00 100 1015.3
20260831082019 22 0 0.0 0.0 0.00 0.13 0.00 100 1015.2
20260831081546 22 0 0.0 0.0 0.00 0.13 0.00 100 1015.3
20260831081020 22 0 0.0 0.0 0.00 0.13 0.00 100 1015.4
20260831080521 22 0 0.0 0.0 0.00 0.13 0.00 100 1015.4
20260831080040 22 0 0.0 0.0 0.00 0.13 0.00 100 1015.5
20260831075519 22 0 0.0 0.0 0.00 0.13 0.00 100 1015.5
20260831075027 22 0 0.0 0.0 0.00 0.13 0.00 100 1015.5
20260831074542 22 0 0.0 0.0 0.00 0.13 0.00 100 1015.5
20260831074018 22 0 0.0 0.0 0.00 0.13 0.00 100 1015.4
20260831073516 22 0 0.0 0.0 0.00 0.13 0.00 100 1015.5
20260831073102 22 0 0.0 0.0 0.00 0.13 0.00 100 1015.5
20260831072521 22 0 0.0 0.0 0.00 0.13 0.00 100 1015.5
20260831072021 22 0 0.0 0.0 0.00 0.13 0.00 100 1015.5
20260831071538 22 0 0.0 0.0 0.00 0.13 0.00 100 1015.5
20260831071025 22 0 0.0 0.0 0.00 0.13 0.00 100 1015.6
20260831070519 22 0 0.0 0.0 0.00 0.13 0.00 100 1015.5
20260831070039 22 0 0.0 0.0 0.00 0.13 0.00 100 1015.6
20260831065522 22 0 0.0 0.0 0.00 0.13 0.00 100 1015.6
20260831065020 22 0 0.0 0.0 0.00 0.13 0.00 100 1015.8
20260831064541 22 0 0.0 0.0 0.00 0.13 0.00 100 1015.8
20260831064017 22 0 0.0 0.0 0.00 0.13 0.00 100 1015.8
20260831063517 23 0 0.0 0.0 0.00 0.13 0.00 100 1015.9
20260831063035 23 0 0.0 0.0 0.00 0.13 0.00 100 1015.9
20260831062524 23 0 0.0 0.0 0.00 0.13 0.00 100 1015.9
20260831062020 23 0 0.0 0.0 0.00 0.13 0.00 100 1016.0
20260831061538 23 0 0.0 0.0 0.00 0.13 0.00 100 1016.0
20260831061023 23 0 0.0 0.0 0.00 0.13 0.00 100 1016.0
20260831060521 23 0 0.0 0.0 0.00 0.13 0.00 100 1016.0
20260831060053 23 0 0.0 0.0 0.00 0.13 0.00 100 1015.9
20260831055522 23 0 0.0 0.0 0.00 0.13 0.00 100 1016.0
20260831055021 23 0 0.0 0.0 0.00 0.13 0.00 100 1016.1
20260831054542 23 0 0.0 0.0 0.00 0.13 0.00 100 1016.1
20260831054017 23 0 0.0 0.0 0.00 0.13 0.00 100 1016.2
20260831053518 23 0 0.0 0.0 0.00 0.13 0.00 100 1016.1
20260831053038 23 0 0.0 0.0 0.00 0.13 0.00 100 1016.1
20260831052519 23 0 0.0 0.0 0.00 0.13 0.00 100 1016.1
20260831052021 23 0 0.0 0.0 0.00 0.13 0.00 100 1016.1
20260831051542 23 0 0.0 0.0 0.00 0.13 0.00 100 1016.1
20260831051018 23 0 0.0 0.0 0.00 0.13 0.00 100 1016.2
20260831050524 23 0 0.0 0.0 0.00 0.13 0.00 100 1016.1
20260831050046 23 0 0.0 0.0 0.00 0.13 0.00 100 1016.2
20260831045517 23 0 0.0 0.0 0.00 0.13 0.00 100 1016.2
20260831045020 23 0 0.0 0.0 0.00 0.13 0.00 100 1016.2
20260831044538 23 0 0.0 0.0 0.00 0.13 0.00 100 1016.1
20260831044050 23 0 0.0 0.0 0.00 0.13 0.00 100 1016.2
20260831043519 23 0 0.0 0.0 0.00 0.13 0.00 100 1016.1
20260831043038 23 0 0.0 0.0 0.00 0.13 0.00 100 1016.2
20260831042521 23 0 0.0 0.0 0.00 0.13 0.00 100 1016.2
20260831042017 23 0 0.0 0.0 0.00 0.13 0.00 100 1016.2
20260831041546 23 0 0.0 0.0 0.00 0.13 0.00 100 1016.3
20260831041020 23 0 0.0 0.0 0.00 0.13 0.00 100 1016.2
20260831040521 23 0 0.0 0.0 0.00 0.13 0.00 100 1016.1
20260831040048 23 0 0.0 0.0 0.00 0.13 0.00 100 1016.2
20260831035523 23 0 0.0 0.0 0.00 0.13 0.13 100 1016.2
20260831035019 24 0 0.0 0.0 0.00 0.13 0.13 100 1016.3
20260831034539 24 0 0.0 0.0 0.00 0.13 0.13 100 1016.2
20260831034019 24 0 0.0 0.0 0.00 0.13 0.13 100 1016.2
20260831033519 24 0 0.0 0.0 0.00 0.13 0.13 100 1016.3
20260831033042 24 0 0.0 0.0 0.00 0.13 0.13 100 1016.2
20260831032517 24 0 0.0 0.0 0.00 0.13 0.13 100 1016.3